^^
Saratoga-Weather Station Historical Data
Daily Summary for May 5, 2021 Units:  English    Metric   Both
Daily Weekly Monthly Yearly Custom
  High: Low: Average:
Temperature: 36.9 °F 35.1 °F 35.8 °F
Dew Point: 34.2 °F 32 °F 33.3 °F
Humidity: 92% 87% 90%
Wind Speed: 4.9mph 0mph 1.2mph
Wind Gust: 10mph - -
Wind- - SE
Pressure: 29.9 in 29.9 in -
Precipitation: 0 in    
Historical Graphs
 
 
Tabular Data for May 5, 2021
Time Temperature Dew Point Pressure Wind Wind Speed Wind Gust Humidity Rainfall Rate (Hourly) solar
00:02 35.2 °F 32 °F 29.9 in NE 2 mph 10 mph 88% 0 in 0 W/m2
00:07 35.2 °F 32.4 °F 29.9 in ESE 0.9 mph 6 mph 89% 0 in 0 W/m2
00:12 35.2 °F 32.4 °F 29.9 in East 0.9 mph 10 mph 89% 0 in 0 W/m2
00:17 35.2 °F 32.4 °F 29.9 in ENE 2 mph 9 mph 89% 0 in 0 W/m2
00:22 35.2 °F 32.4 °F 29.9 in East 2 mph 9 mph 89% 0 in 0 W/m2
00:27 35.2 °F 32.4 °F 29.9 in East 2 mph 2 mph 89% 0 in 0 W/m2
00:32 35.2 °F 32.4 °F 29.9 in ENE 2 mph 9 mph 89% 0 in 0 W/m2
00:37 35.2 °F 32.4 °F 29.9 in ESE 2.9 mph 3 mph 89% 0 in 0 W/m2
00:42 35.1 °F 32.4 °F 29.9 in East 2.9 mph 5 mph 90% 0 in 0 W/m2
00:47 35.1 °F 32.4 °F 29.9 in East 4.9 mph 7 mph 90% 0 in 0 W/m2
00:52 35.1 °F 32.4 °F 29.9 in ENE 0.9 mph 3 mph 90% 0 in 0 W/m2
00:57 35.1 °F 32.4 °F 29.9 in ENE 2.9 mph 6 mph 90% 0 in 0 W/m2
01:02 35.1 °F 32.4 °F 29.9 in NE 0.9 mph 5 mph 90% 0 in 0 W/m2
01:07 35.1 °F 32.4 °F 29.9 in ENE 2 mph 5 mph 90% 0 in 0 W/m2
01:12 35.1 °F 32.4 °F 29.9 in ENE 0.9 mph 5 mph 90% 0 in 0 W/m2
01:17 35.1 °F 32.4 °F 29.9 in ENE 0.9 mph 3 mph 90% 0 in 0 W/m2
01:22 35.1 °F 32.4 °F 29.9 in ENE 2 mph 5 mph 90% 0 in 0 W/m2
01:27 35.1 °F 32.2 °F 29.9 in NE 0.9 mph 5 mph 89% 0 in 0 W/m2
01:32 35.2 °F 32.4 °F 29.9 in Calm   5 mph 89% 0 in 0 W/m2
01:37 35.2 °F 32 °F 29.9 in East 2 mph 7 mph 88% 0 in 0 W/m2
01:42 35.2 °F 32 °F 29.9 in East 2.9 mph 6 mph 88% 0 in 0 W/m2
01:47 35.4 °F 32.2 °F 29.9 in East 4 mph 4 mph 88% 0 in 0 W/m2
01:52 35.2 °F 32 °F 29.9 in Calm   6 mph 88% 0 in 0 W/m2
01:57 35.4 °F 32.2 °F 29.9 in East 0.9 mph 2 mph 88% 0 in 0 W/m2
02:02 35.4 °F 32.2 °F 29.9 in ENE 2.9 mph 8 mph 88% 0 in 0 W/m2
02:07 35.4 °F 32 °F 29.9 in East 0.9 mph 2 mph 87% 0 in 0 W/m2
02:12 35.4 °F 32 °F 29.9 in ENE 0.9 mph 8 mph 87% 0 in 0 W/m2
02:17 35.4 °F 32 °F 29.9 in NE 0.9 mph 6 mph 87% 0 in 0 W/m2
02:22 35.4 °F 32 °F 29.9 in ENE 2 mph 2 mph 87% 0 in 0 W/m2
02:27 35.4 °F 32 °F 29.9 in NE 2.9 mph 3 mph 87% 0 in 0 W/m2
02:32 35.4 °F 32.2 °F 29.9 in East 2 mph 3 mph 88% 0 in 0 W/m2
02:37 35.4 °F 32.2 °F 29.9 in ENE 0.9 mph 3 mph 88% 0 in 0 W/m2
02:43 35.4 °F 32.2 °F 29.9 in ESE 2 mph 3 mph 88% 0 in 0 W/m2
02:48 35.2 °F 32 °F 29.9 in Calm   2 mph 88% 0 in 0 W/m2
02:53 35.2 °F 32 °F 29.9 in Calm   1 mph 88% 0 in 0 W/m2
02:58 35.2 °F 32.4 °F 29.9 in Calm   2 mph 89% 0 in 0 W/m2
03:03 35.2 °F 32.4 °F 29.9 in East 4 mph 4 mph 89% 0 in 0 W/m2
03:08 35.2 °F 32.4 °F 29.9 in NE 0.9 mph 4 mph 89% 0 in 0 W/m2
03:13 35.2 °F 32.4 °F 29.9 in SSE 0.9 mph 2 mph 89% 0 in 0 W/m2
03:18 35.2 °F 32.4 °F 29.9 in NE 0.9 mph 3 mph 89% 0 in 0 W/m2
03:23 35.2 °F 32.4 °F 29.9 in Calm   1 mph 89% 0 in 0 W/m2
03:28 35.2 °F 32.5 °F 29.9 in ENE 0.9 mph 2 mph 90% 0 in 0 W/m2
03:33 35.2 °F 32.5 °F 29.9 in ENE 0.9 mph 1 mph 90% 0 in 0 W/m2
03:38 35.2 °F 32.5 °F 29.9 in ENE 0.9 mph 3 mph 90% 0 in 0 W/m2
03:43 35.2 °F 32.5 °F 29.9 in East 0.9 mph 3 mph 90% 0 in 0 W/m2
03:48 35.2 °F 32.5 °F 29.9 in Calm   1 mph 90% 0 in 0 W/m2
03:53 35.2 °F 32.5 °F 29.9 in Calm   1 mph 90% 0 in 0 W/m2
03:58 35.2 °F 32.5 °F 29.9 in Calm   3 mph 90% 0 in 0 W/m2
04:03 35.1 °F 32.4 °F 29.9 in ENE 0.9 mph 2 mph 90% 0 in 0 W/m2
04:08 35.1 °F 32.4 °F 29.9 in East 2 mph 2 mph 90% 0 in 0 W/m2
04:13 35.2 °F 32.5 °F 29.9 in East 0.9 mph 3 mph 90% 0 in 0 W/m2
04:18 35.1 °F 32.4 °F 29.9 in ENE 0.9 mph 1 mph 90% 0 in 0 W/m2
04:23 35.2 °F 32.5 °F 29.9 in ENE 0.9 mph 3 mph 90% 0 in 0 W/m2
04:28 35.2 °F 32.5 °F 29.9 in Calm   2 mph 90% 0 in 0 W/m2
04:33 35.2 °F 32.9 °F 29.9 in Calm   2 mph 91% 0 in 0 W/m2
04:38 35.1 °F 32.7 °F 29.9 in ENE 0.9 mph 4 mph 91% 0 in 0 W/m2
04:43 35.1 °F 32.7 °F 29.9 in Calm   3 mph 91% 0 in 0 W/m2
04:48 35.2 °F 32.9 °F 29.9 in East 0.9 mph 3 mph 91% 0 in 0 W/m2
04:53 35.2 °F 32.9 °F 29.9 in East 2 mph 3 mph 91% 0 in 0 W/m2
04:58 35.1 °F 32.7 °F 29.9 in Calm   2 mph 91% 0 in 0 W/m2
05:03 35.2 °F 32.9 °F 29.9 in East 0.9 mph 2 mph 91% 0 in 0 W/m2
05:08 35.2 °F 32.9 °F 29.9 in ENE 0.9 mph 3 mph 91% 0 in 0 W/m2
05:13 35.2 °F 32.9 °F 29.9 in Calm   3 mph 91% 0 in 0 W/m2
05:18 35.1 °F 32.7 °F 29.9 in Calm   3 mph 91% 0 in 0 W/m2
05:23 35.2 °F 32.9 °F 29.9 in Calm   2 mph 91% 0 in 0 W/m2
05:28 35.2 °F 32.9 °F 29.9 in ENE 0.9 mph 4 mph 91% 0 in 0 W/m2
05:33 35.2 °F 32.9 °F 29.9 in ESE 0.9 mph 3 mph 91% 0 in 0 W/m2
05:38 35.2 °F 32.9 °F 29.9 in East 0.9 mph 3 mph 91% 0 in 0 W/m2
05:43 35.2 °F 32.9 °F 29.9 in East 0.9 mph 2 mph 91% 0 in 0 W/m2
05:48 35.2 °F 32.9 °F 29.9 in Calm   6 mph 91% 0 in 0 W/m2
05:53 35.2 °F 32.9 °F 29.9 in NE 2 mph 2 mph 91% 0 in 0 W/m2
05:58 35.2 °F 32.9 °F 29.9 in NNE 0.9 mph 3 mph 91% 0 in 0 W/m2
06:03 35.2 °F 32.9 °F 29.9 in Calm   4 mph 91% 0 in 0 W/m2
06:08 35.2 °F 32.9 °F 29.9 in ENE 2.9 mph 4 mph 91% 0 in 0 W/m2
06:13 35.2 °F 32.9 °F 29.9 in ENE 0.9 mph 3 mph 91% 0 in 0 W/m2
06:18 35.2 °F 32.9 °F 29.9 in Calm   3 mph 91% 0 in 0 W/m2
06:23 35.2 °F 32.9 °F 29.9 in East 0.9 mph 3 mph 91% 0 in 0 W/m2
06:28 35.2 °F 32.9 °F 29.9 in ENE 0.9 mph 1 mph 91% 0 in 0 W/m2
06:33 35.2 °F 32.9 °F 29.9 in East 2 mph 3 mph 91% 0 in 0 W/m2
06:38 35.2 °F 32.9 °F 29.9 in SE 0.9 mph 5 mph 91% 0 in 0 W/m2
06:43 35.2 °F 32.9 °F 29.9 in Calm   2 mph 91% 0 in 0 W/m2
06:48 35.2 °F 32.9 °F 29.9 in ENE 0.9 mph 3 mph 91% 0 in 0 W/m2
06:53 35.2 °F 32.9 °F 29.9 in ESE 2 mph 2 mph 91% 0 in 0 W/m2
06:58 35.2 °F 32.9 °F 29.9 in ENE 4 mph 4 mph 91% 0 in 0 W/m2
07:03 35.2 °F 32.9 °F 29.9 in Calm   2 mph 91% 0 in 0 W/m2
07:08 35.2 °F 32.9 °F 29.9 in Calm   3 mph 91% 0 in 0 W/m2
07:13 35.2 °F 32.9 °F 29.9 in ENE 0.9 mph 3 mph 91% 0 in 0 W/m2
07:18 35.2 °F 32.9 °F 29.9 in Calm     91% 0 in 0 W/m2
07:23 35.2 °F 32.9 °F 29.9 in Calm   3 mph 91% 0 in 0 W/m2
07:28 35.2 °F 32.9 °F 29.9 in NE 2.9 mph 5 mph 91% 0 in 0 W/m2
07:33 35.2 °F 32.9 °F 29.9 in East 0.9 mph 3 mph 91% 0 in 0 W/m2
07:38 35.2 °F 32.9 °F 29.9 in Calm   4 mph 91% 0 in 0 W/m2
07:43 35.2 °F 32.9 °F 29.9 in East 0.9 mph 3 mph 91% 0 in 0 W/m2
07:48 35.2 °F 32.9 °F 29.9 in ESE 0.9 mph 3 mph 91% 0 in 0 W/m2
07:53 35.2 °F 32.9 °F 29.9 in NE 0.9 mph 5 mph 91% 0 in 0 W/m2
07:58 35.2 °F 32.9 °F 29.9 in East 0.9 mph 3 mph 91% 0 in 0 W/m2
08:03 35.2 °F 32.9 °F 29.9 in ESE 2 mph 5 mph 91% 0 in 0 W/m2
08:08 35.2 °F 32.9 °F 29.9 in Calm   3 mph 91% 0 in 0 W/m2
08:13 35.2 °F 32.9 °F 29.9 in NE 0.9 mph 5 mph 91% 0 in 0 W/m2
08:18 35.2 °F 32.9 °F 29.9 in Calm     91% 0 in 0 W/m2
08:23 35.2 °F 32.9 °F 29.9 in East 2 mph 6 mph 91% 0 in 0 W/m2
08:28 35.2 °F 32.9 °F 29.9 in NE 0.9 mph 5 mph 91% 0 in 0 W/m2
08:33 35.2 °F 32.9 °F 29.9 in East 0.9 mph 6 mph 91% 0 in 0 W/m2
08:38 35.2 °F 32.9 °F 29.9 in ENE 2 mph 2 mph 91% 0 in 0 W/m2
08:43 35.2 °F 32.9 °F 29.9 in NNE 2 mph 2 mph 91% 0 in 0 W/m2
08:48 35.2 °F 32.9 °F 29.9 in NE 0.9 mph 3 mph 91% 0 in 0 W/m2
08:53 35.2 °F 32.9 °F 29.9 in NE 0.9 mph 2 mph 91% 0 in 0 W/m2
08:58 35.2 °F 32.9 °F 29.9 in North 2 mph 3 mph 91% 0 in 0 W/m2
09:03 35.2 °F 32.9 °F 29.9 in SSE 0.9 mph 2 mph 91% 0 in 0 W/m2
09:08 35.2 °F 32.9 °F 29.9 in East 2 mph 4 mph 91% 0 in 5 W/m2
09:13 35.2 °F 32.9 °F 29.9 in Calm   4 mph 91% 0 in 5 W/m2
09:18 35.2 °F 32.9 °F 29.9 in NW 2 mph 3 mph 91% 0 in 7 W/m2
09:23 35.2 °F 32.9 °F 29.9 in Calm   3 mph 91% 0 in 9 W/m2
09:28 35.4 °F 33.1 °F 29.9 in Calm   2 mph 91% 0 in 12 W/m2
09:33 35.4 °F 33.1 °F 29.9 in NE 0.9 mph 1 mph 91% 0 in 12 W/m2
09:38 35.4 °F 33.1 °F 29.9 in NNE 0.9 mph 2 mph 91% 0 in 12 W/m2
09:44 35.4 °F 33.1 °F 29.9 in Calm   2 mph 91% 0 in 12 W/m2
09:49 35.4 °F 33.1 °F 29.9 in Calm   3 mph 91% 0 in 18 W/m2
09:54 35.4 °F 33.1 °F 29.9 in NW 0.9 mph 2 mph 91% 0 in 18 W/m2
09:59 35.4 °F 33.1 °F 29.9 in NE 2 mph 5 mph 91% 0 in 18 W/m2
10:04 35.4 °F 33.1 °F 29.9 in East 0.9 mph 3 mph 91% 0 in 18 W/m2
10:09 35.4 °F 33.1 °F 29.9 in NE 0.9 mph 2 mph 91% 0 in 21 W/m2
10:14 35.4 °F 33.1 °F 29.9 in NE 2 mph 3 mph 91% 0 in 23 W/m2
10:19 35.6 °F 33.3 °F 29.9 in Calm   2 mph 91% 0 in 25 W/m2
10:24 35.6 °F 33.3 °F 29.9 in Calm   4 mph 91% 0 in 28 W/m2
10:29 35.8 °F 33.4 °F 29.9 in ENE 2.9 mph 5 mph 91% 0 in 30 W/m2
10:34 35.8 °F 33.4 °F 29.9 in NE 2.9 mph 7 mph 91% 0 in 26 W/m2
10:39 35.8 °F 33.4 °F 29.9 in North 0.9 mph 3 mph 91% 0 in 26 W/m2
10:44 35.8 °F 33.4 °F 29.9 in West 0.9 mph 5 mph 91% 0 in 28 W/m2
10:49 36 °F 33.6 °F 29.9 in ESE 2.9 mph 7 mph 91% 0 in 26 W/m2
10:54 36 °F 33.3 °F 29.9 in East 2 mph 4 mph 90% 0 in 28 W/m2
10:59 36 °F 33.3 °F 29.9 in NNE 2 mph 7 mph 90% 0 in 33 W/m2
11:04 36 °F 33.3 °F 29.9 in Calm   3 mph 90% 0 in 26 W/m2
11:09 36 °F 33.3 °F 29.9 in East 0.9 mph 2 mph 90% 0 in 26 W/m2
11:14 36.1 °F 33.4 °F 29.9 in Calm   4 mph 90% 0 in 28 W/m2
11:19 36.1 °F 33.4 °F 29.9 in ENE 0.9 mph 2 mph 90% 0 in 28 W/m2
11:24 36.1 °F 33.4 °F 29.9 in South 0.9 mph 2 mph 90% 0 in 39 W/m2
11:29 36.1 °F 33.4 °F 29.9 in SE 2 mph 2 mph 90% 0 in 32 W/m2
11:34 36.1 °F 33.4 °F 29.9 in NNW 2.9 mph 5 mph 90% 0 in 35 W/m2
11:39 36.1 °F 33.4 °F 29.9 in North 2 mph 3 mph 90% 0 in 39 W/m2
11:44 36.3 °F 33.6 °F 29.9 in NE 2 mph 3 mph 90% 0 in 37 W/m2
11:49 36.3 °F 33.6 °F 29.9 in Calm   1 mph 90% 0 in 37 W/m2
11:54 36.3 °F 33.6 °F 29.9 in NNE 2.9 mph 3 mph 90% 0 in 39 W/m2
11:59 36.3 °F 33.6 °F 29.9 in Calm   5 mph 90% 0 in 37 W/m2
12:04 36.3 °F 33.6 °F 29.9 in NNE 0.9 mph 4 mph 90% 0 in 39 W/m2
12:09 36.3 °F 33.6 °F 29.9 in ENE 2 mph 5 mph 90% 0 in 33 W/m2
12:14 36.5 °F 33.8 °F 29.9 in Calm   5 mph 90% 0 in 33 W/m2
12:19 36.5 °F 33.8 °F 29.9 in East 0.9 mph 2 mph 90% 0 in 30 W/m2
12:24 36.5 °F 33.8 °F 29.9 in NNW 0.9 mph 3 mph 90% 0 in 40 W/m2
12:29 36.7 °F 34 °F 29.9 in NE 2 mph 3 mph 90% 0 in 44 W/m2
12:34 36.7 °F 34 °F 29.9 in East 2 mph 4 mph 90% 0 in 53 W/m2
12:39 36.7 °F 34 °F 29.9 in East 0.9 mph 1 mph 90% 0 in 37 W/m2
12:44 36.7 °F 34 °F 29.9 in North 0.9 mph 2 mph 90% 0 in 35 W/m2
12:49 36.7 °F 34 °F 29.9 in NE 0.9 mph 2 mph 90% 0 in 33 W/m2
12:54 36.9 °F 34.2 °F 29.9 in Calm   3 mph 90% 0 in 35 W/m2
12:59 36.9 °F 34.2 °F 29.9 in Calm   4 mph 90% 0 in 39 W/m2
13:04 36.9 °F 34.2 °F 29.9 in East 4 mph 4 mph 90% 0 in 30 W/m2
13:09 36.9 °F 34 °F 29.9 in ENE 2 mph 7 mph 89% 0 in 35 W/m2
13:14 36.9 °F 34 °F 29.9 in Calm   3 mph 89% 0 in 39 W/m2
13:19 36.9 °F 34 °F 29.9 in NNE 0.9 mph 5 mph 89% 0 in 47 W/m2
13:24 36.9 °F 34 °F 29.9 in Calm   2 mph 89% 0 in 23 W/m2
13:29 36.9 °F 34 °F 29.9 in Calm   4 mph 89% 0 in 21 W/m2
13:34 36.9 °F 34 °F 29.9 in ENE 0.9 mph 3 mph 89% 0 in 23 W/m2
13:39 36.9 °F 34 °F 29.9 in SSE 0.9 mph 2 mph 89% 0 in 32 W/m2
13:44 36.9 °F 34 °F 29.9 in Calm   2 mph 89% 0 in 39 W/m2
13:49 36.9 °F 34 °F 29.9 in Calm   3 mph 89% 0 in 28 W/m2
13:54 36.9 °F 34 °F 29.9 in WNW 0.9 mph 3 mph 89% 0 in 21 W/m2
13:59 36.9 °F 34 °F 29.9 in Calm   2 mph 89% 0 in 16 W/m2
14:05 36.9 °F 34 °F 29.9 in NW 2 mph 6 mph 89% 0 in 9 W/m2
14:10 36.7 °F 33.8 °F 29.9 in Calm   3 mph 89% 0 in 9 W/m2
14:15 36.7 °F 33.8 °F 29.9 in NNW 0.9 mph 6 mph 89% 0 in 9 W/m2
14:20 36.7 °F 33.8 °F 29.9 in WNW 2.9 mph 3 mph 89% 0 in 12 W/m2
14:25 36.7 °F 33.8 °F 29.9 in North 2 mph 4 mph 89% 0 in 14 W/m2
14:30 36.7 °F 33.8 °F 29.9 in ESE 0.9 mph 3 mph 89% 0 in 14 W/m2
14:35 36.7 °F 33.8 °F 29.9 in NNE 2 mph 3 mph 89% 0 in 11 W/m2
14:40 36.7 °F 33.8 °F 29.9 in NNW 2 mph 4 mph 89% 0 in 11 W/m2
14:45 36.7 °F 33.8 °F 29.9 in NNW 2 mph 3 mph 89% 0 in 16 W/m2
14:50 36.5 °F 33.6 °F 29.9 in WNW 2 mph 3 mph 89% 0 in 18 W/m2
14:55 36.7 °F 33.8 °F 29.9 in Calm   4 mph 89% 0 in 14 W/m2
15:00 36.5 °F 33.6 °F 29.9 in NW 2 mph 2 mph 89% 0 in 12 W/m2
15:05 36.5 °F 33.6 °F 29.9 in SSW 0.9 mph 2 mph 89% 0 in 14 W/m2
15:10 36.5 °F 33.8 °F 29.9 in NNW 2 mph 4 mph 90% 0 in 14 W/m2
15:15 36.3 °F 33.6 °F 29.9 in North 2.9 mph 3 mph 90% 0 in 11 W/m2
15:20 36.3 °F 33.6 °F 29.9 in NW 2 mph 3 mph 90% 0 in 11 W/m2
15:25 36.3 °F 33.6 °F 29.9 in Calm   4 mph 90% 0 in 12 W/m2
15:30 36.3 °F 33.6 °F 29.9 in NNW 2.9 mph 3 mph 90% 0 in 11 W/m2
15:35 36.3 °F 33.6 °F 29.9 in Calm   2 mph 90% 0 in 9 W/m2
15:40 36.3 °F 33.6 °F 29.9 in NNW 0.9 mph 4 mph 90% 0 in 7 W/m2
15:45 36.3 °F 33.6 °F 29.9 in ESE 0.9 mph 2 mph 90% 0 in 5 W/m2
15:50 36.3 °F 33.6 °F 29.9 in Calm   3 mph 90% 0 in 5 W/m2
15:55 36.3 °F 33.6 °F 29.9 in NNW 2.9 mph 3 mph 90% 0 in 5 W/m2
16:00 36.3 °F 33.6 °F 29.9 in North 2 mph 2 mph 90% 0 in 7 W/m2
16:05 36.3 °F 33.6 °F 29.9 in Calm   2 mph 90% 0 in 5 W/m2
16:10 36.3 °F 33.6 °F 29.9 in NNW 0.9 mph 3 mph 90% 0 in 7 W/m2
16:15 36.3 °F 33.6 °F 29.9 in NNE 2 mph 6 mph 90% 0 in 5 W/m2
16:20 36.3 °F 33.6 °F 29.9 in North 2 mph 3 mph 90% 0 in 0 W/m2
16:25 36.3 °F 33.6 °F 29.9 in ENE 0.9 mph 6 mph 90% 0 in 0 W/m2
16:30 36.1 °F 33.4 °F 29.9 in East 2 mph 4 mph 90% 0 in 0 W/m2
16:35 36.1 °F 33.4 °F 29.9 in West 2 mph 2 mph 90% 0 in 0 W/m2
16:40 36.1 °F 33.4 °F 29.9 in Calm   4 mph 90% 0 in 0 W/m2
16:45 36.1 °F 33.8 °F 29.9 in North 0.9 mph 3 mph 91% 0 in 0 W/m2
16:50 36.1 °F 33.8 °F 29.9 in NNW 4 mph 4 mph 91% 0 in 0 W/m2
16:55 36.1 °F 33.8 °F 29.9 in NNW 2 mph 3 mph 91% 0 in 0 W/m2
17:00 36.1 °F 33.8 °F 29.9 in ENE 0.9 mph 3 mph 91% 0 in 0 W/m2
17:05 36.1 °F 33.8 °F 29.9 in NNW 0.9 mph 3 mph 91% 0 in 0 W/m2
17:10 36.1 °F 33.8 °F 29.9 in NNW 4 mph 4 mph 91% 0 in 0 W/m2
17:15 36.1 °F 33.8 °F 29.9 in North 0.9 mph 3 mph 91% 0 in 0 W/m2
17:20 36.1 °F 33.8 °F 29.9 in Calm   3 mph 91% 0 in 0 W/m2
17:25 36.1 °F 33.8 °F 29.9 in North 0.9 mph 3 mph 91% 0 in 0 W/m2
17:30 36.1 °F 33.8 °F 29.9 in East 0.9 mph 8 mph 91% 0 in 0 W/m2
17:35 36.1 °F 33.8 °F 29.9 in East 4 mph 6 mph 91% 0 in 0 W/m2
17:40 36.1 °F 33.8 °F 29.9 in NNW 0.9 mph 8 mph 91% 0 in 0 W/m2
17:45 36.1 °F 33.8 °F 29.9 in East 2 mph 4 mph 91% 0 in 0 W/m2
17:50 36.1 °F 33.8 °F 29.9 in Calm   3 mph 91% 0 in 0 W/m2
17:55 36.1 °F 33.8 °F 29.9 in Calm   6 mph 91% 0 in 0 W/m2
18:00 36.1 °F 33.8 °F 29.9 in Calm   6 mph 91% 0 in 0 W/m2
18:05 36.1 °F 33.8 °F 29.9 in ENE 0.9 mph 2 mph 91% 0 in 0 W/m2
18:10 36.1 °F 33.8 °F 29.9 in NNW 4 mph 5 mph 91% 0 in 0 W/m2
18:15 36.1 °F 33.8 °F 29.9 in Calm   2 mph 91% 0 in 0 W/m2
18:20 36.1 °F 33.8 °F 29.9 in North 2 mph 2 mph 91% 0 in 0 W/m2
18:25 36.1 °F 33.8 °F 29.9 in ENE 0.9 mph 2 mph 91% 0 in 0 W/m2
18:30 36.1 °F 33.8 °F 29.9 in NNW 2 mph 6 mph 91% 0 in 0 W/m2
18:35 36.1 °F 33.8 °F 29.9 in NE 0.9 mph 5 mph 91% 0 in 0 W/m2
18:40 36.1 °F 33.8 °F 29.9 in Calm   6 mph 91% 0 in 0 W/m2
18:45 36.1 °F 33.8 °F 29.9 in NNW 2.9 mph 5 mph 91% 0 in 0 W/m2
18:50 36.1 °F 33.8 °F 29.9 in Calm   3 mph 91% 0 in 0 W/m2
18:55 36.1 °F 33.8 °F 29.9 in NE 2 mph 2 mph 91% 0 in 0 W/m2
19:00 36.1 °F 33.8 °F 29.9 in South 0.9 mph 3 mph 91% 0 in 0 W/m2
19:05 36.1 °F 33.8 °F 29.9 in Calm   2 mph 91% 0 in 0 W/m2
19:10 36.1 °F 33.8 °F 29.9 in NNE 2 mph 3 mph 91% 0 in 0 W/m2
19:15 36.1 °F 33.8 °F 29.9 in NNW 2 mph 5 mph 91% 0 in 0 W/m2
19:20 36.1 °F 33.8 °F 29.9 in East 2.9 mph 3 mph 91% 0 in 0 W/m2
19:25 36.1 °F 33.8 °F 29.9 in ENE 0.9 mph 5 mph 91% 0 in 0 W/m2
19:30 36.1 °F 33.8 °F 29.9 in Calm   2 mph 91% 0 in 0 W/m2
19:35 36.1 °F 33.8 °F 29.9 in East 2.9 mph 6 mph 91% 0 in 0 W/m2
19:40 36.1 °F 33.8 °F 29.9 in ESE 2 mph 4 mph 91% 0 in 0 W/m2
19:45 36.1 °F 33.8 °F 29.9 in North 4.9 mph 5 mph 91% 0 in 0 W/m2
19:51 36.1 °F 33.8 °F 29.9 in Calm   2 mph 91% 0 in 0 W/m2
19:56 36.3 °F 34 °F 29.9 in ESE 2.9 mph 3 mph 91% 0 in 0 W/m2
20:01 36.3 °F 34 °F 29.9 in East 4 mph 5 mph 91% 0 in 0 W/m2
20:06 36.3 °F 34 °F 29.9 in North 4 mph 7 mph 91% 0 in 0 W/m2
20:11 36.3 °F 34 °F 29.9 in ENE 2.9 mph 6 mph 91% 0 in 0 W/m2
20:16 36.3 °F 34 °F 29.9 in North 0.9 mph 2 mph 91% 0 in 0 W/m2
20:21 36.3 °F 34 °F 29.9 in NE 2.9 mph 3 mph 91% 0 in 0 W/m2
20:26 36.3 °F 34 °F 29.9 in NE 0.9 mph 2 mph 91% 0 in 0 W/m2
20:31 36.3 °F 34 °F 29.9 in Calm   2 mph 91% 0 in 0 W/m2
20:36 36.3 °F 34 °F 29.9 in Calm   2 mph 91% 0 in 0 W/m2
20:41 36.3 °F 34 °F 29.9 in NE 0.9 mph 3 mph 91% 0 in 0 W/m2
20:46 36.3 °F 34 °F 29.9 in Calm   3 mph 91% 0 in 0 W/m2
20:51 36.3 °F 34 °F 29.9 in North 2 mph 3 mph 91% 0 in 0 W/m2
20:56 36.3 °F 34 °F 29.9 in NNW 2 mph 2 mph 91% 0 in 0 W/m2
21:01 36.3 °F 34 °F 29.9 in East 2 mph 7 mph 91% 0 in 0 W/m2
21:06 36.3 °F 34 °F 29.9 in ESE 2 mph 4 mph 91% 0 in 0 W/m2
21:11 36.3 °F 34 °F 29.9 in Calm   3 mph 91% 0 in 0 W/m2
21:16 36.3 °F 34 °F 29.9 in ENE 0.9 mph 2 mph 91% 0 in 0 W/m2
21:21 36.3 °F 34 °F 29.9 in NNE 0.9 mph 2 mph 91% 0 in 0 W/m2
21:26 36.3 °F 34.2 °F 29.9 in East 2 mph 4 mph 92% 0 in 0 W/m2
21:31 36.3 °F 34.2 °F 29.9 in Calm   3 mph 92% 0 in 0 W/m2
21:36 36.3 °F 34.2 °F 29.9 in Calm   2 mph 92% 0 in 0 W/m2
21:41 36.3 °F 34.2 °F 29.9 in Calm   2 mph 92% 0 in 0 W/m2
21:46 36.3 °F 34.2 °F 29.9 in Calm   3 mph 92% 0 in 0 W/m2
21:51 36.3 °F 34.2 °F 29.9 in East 2 mph 3 mph 92% 0 in 0 W/m2
21:56 36.3 °F 34.2 °F 29.9 in ENE 0.9 mph 2 mph 92% 0 in 0 W/m2
22:01 36.3 °F 34.2 °F 29.9 in Calm     92% 0 in 0 W/m2
22:06 36.3 °F 34.2 °F 29.9 in Calm   2 mph 92% 0 in 0 W/m2
22:11 36.3 °F 34 °F 29.9 in Calm   2 mph 91% 0 in 0 W/m2
22:16 36.3 °F 34 °F 29.9 in West 2 mph 3 mph 91% 0 in 0 W/m2
22:21 36.3 °F 34 °F 29.9 in Calm   1 mph 91% 0 in 0 W/m2
22:26 36.3 °F 34 °F 29.9 in Calm   3 mph 91% 0 in 0 W/m2
22:31 36.5 °F 34.2 °F 29.9 in Calm   2 mph 91% 0 in 0 W/m2
22:36 36.5 °F 34.2 °F 29.9 in Calm   2 mph 91% 0 in 0 W/m2
22:41 36.5 °F 34.2 °F 29.9 in Calm   2 mph 91% 0 in 0 W/m2
22:46 36.5 °F 34.2 °F 29.9 in NNW 0.9 mph 3 mph 91% 0 in 0 W/m2
22:51 36.5 °F 34.2 °F 29.9 in NW 0.9 mph 3 mph 91% 0 in 0 W/m2
22:56 36.5 °F 34.2 °F 29.9 in NW 2.9 mph 3 mph 91% 0 in 0 W/m2
23:01 36.5 °F 34.2 °F 29.9 in NE 0.9 mph 2 mph 91% 0 in 0 W/m2
23:06 36.5 °F 34.2 °F 29.9 in WNW 2.9 mph 4 mph 91% 0 in 0 W/m2
23:11 36.5 °F 34.2 °F 29.9 in NW 2 mph 4 mph 91% 0 in 0 W/m2
23:16 36.5 °F 34.2 °F 29.9 in NNW 2 mph 4 mph 91% 0 in 0 W/m2
23:21 36.5 °F 34.2 °F 29.9 in Calm   2 mph 91% 0 in 0 W/m2
23:26 36.3 °F 34 °F 29.9 in NW 0.9 mph 4 mph 91% 0 in 0 W/m2
23:31 36.3 °F 34 °F 29.9 in North 0.9 mph 2 mph 91% 0 in 0 W/m2
23:36 36.3 °F 34 °F 29.9 in WNW 2.9 mph 3 mph 91% 0 in 0 W/m2
23:41 36.3 °F 34 °F 29.9 in NNW 2 mph 2 mph 91% 0 in 0 W/m2
23:46 36.3 °F 34 °F 29.9 in Calm   3 mph 91% 0 in 0 W/m2
23:51 36.5 °F 34.2 °F 29.9 in NW 0.9 mph 2 mph 91% 0 in 0 W/m2
23:56 36.5 °F 34.2 °F 29.9 in West 2.9 mph 4 mph 91% 0 in 0 W/m2
Juneau County Weather
Compliments of Weather Underground - 4 mb